Flag for U.S.A. Weather past 2 weeks in Pierre, South Dakota, U.S.A.

Now
22 °F

Ice fog.


Feels Like: 3 °F
Forecast: 10 / 31 °F
Wind: 35 mph from North

Location: Pierre Regional Airport

Current Time: Mar 3, 2015 at 5:11:15 AM

Latest Report: Mar 3, 2015 at 3:53 AM


Visibility: 0 mi

Pressure: 29.72 "Hg

Humidity: 92%

Dew point: 20 °F

Location of PierreLocation

Historic Weather in Pierre — Graph

°F

Pierre temperature yesterday

Maximum temperature yesterday: 47 °F (at 2:53 PM)
Minimum temperature yesterday: 9 °F (at 1:53 AM)
Average temperature yesterday: 29 °F

Past Weeks' High & Low Weather Summary

 TemperatureHumidityPressure
High51 °F (Feb 20, 12:53 PM)100% (Mar 3, 1:53 AM)30.87 "Hg (Mar 3, 1:53 AM)
Low-8 °F (Feb 27, 5:53 AM)23% (Feb 27, 3:53 PM)29.67 "Hg (Mar 3, 2:53 AM)
Average18 °F65%30.26 "Hg
* Reported Feb 16 3:53 AM — Mar 3 3:53 AM, Pierre, Weather by CustomWeather, © 2015

Note: Actual official high and low records may vary slightly from our data, if they occured in-between our weather recording intervals... More about our weather records

Advertising

Pierre weather history for previous 24 hours

 ConditionsComfort  
Time TempWeatherWind HumidityBarometerVisibility
3:53 AM
Tue, Mar 3
22 °FIce fog.35 mph92%29.72 "Hg1 mi
2:53 AM32 °FSnow. Fog.21 mph92%29.67 "Hg1 mi
1:53 AM31 °FLight snow. Ice fog.No wind100%29.71 "Hg1 mi
12:53 AM32 °FLight snow. Ice fog.7 mph88%29.72 "Hg2 mi
11:53 PM
Mon, Mar 2
34 °FLight snow. Overcast.21 mph70%29.70 "Hg4 mi
10:53 PM36 °FOvercast.9 mph52%29.75 "Hg10 mi
9:53 PM37 °FMostly cloudy.10 mph44%29.77 "Hg10 mi
8:53 PM37 °FOvercast.14 mph41%29.78 "Hg10 mi
7:53 PM37 °FPassing clouds.10 mph41%29.81 "Hg10 mi
6:53 PM39 °FClear.12 mph34%29.83 "Hg10 mi
5:53 PM42 °FSunny.16 mph29%29.85 "Hg10 mi
4:53 PM44 °FSunny.20 mph28%29.86 "Hg10 mi
3:53 PM47 °FScattered clouds.28 mph28%29.88 "Hg10 mi
2:53 PM47 °FSunny.24 mph29%29.91 "Hg10 mi
1:53 PM45 °FSunny.30 mph33%29.97 "Hg10 mi
12:53 PM45 °FPassing clouds.28 mph31%30.02 "Hg10 mi
11:53 AM39 °FSunny.30 mph38%30.09 "Hg10 mi
10:53 AM34 °FPassing clouds.18 mph44%30.14 "Hg10 mi
9:53 AM25 °FPartly sunny.18 mph58%30.22 "Hg10 mi
8:53 AM21 °FSunny.14 mph78%30.25 "Hg10 mi
7:53 AM15 °FSunny.12 mph83%30.31 "Hg10 mi
6:53 AM14 °FClear.12 mph84%30.33 "Hg10 mi
5:53 AM13 °FClear.7 mph88%30.35 "Hg10 mi
Weather by CustomWeather, © 2015

See weather overviewHow to use our weather pages